• En España
  • Lista de países
  • Para 7 días
  • Temperatura del agua
  • Mapa Satelital
  • El tiempo en el mapa
  • Informadores
  • user-avatar
    Iniciar sesión

    Tiempo cada hora Luanda

    Hoy, 18 Octubre, Jueves

    Tiempo Temperatura Precipitaciones Viento Presión Humedad
    00:00 +26°C° 0.3 mm 2 mps 754 mmHg 86%
    01:00 +25°C° 0 mm 2 mps 754 mmHg 87%
    02:00 +25°C° 0.8 mm 2 mps 753 mmHg 87%
    03:00 +25°C° 0.8 mm 2 mps 753 mmHg 87%
    04:00 +25°C° 0.8 mm 2 mps 753 mmHg 87%
    05:00 +25°C° 0.4 mm 2 mps 753 mmHg 87%
    06:00 +26°C° 0.4 mm 1 mps 754 mmHg 86%
    07:00 +26°C° 0 mm 1 mps 754 mmHg 86%
    08:00 +27°C° 0.5 mm 1 mps 754 mmHg 81%
    09:00 +27°C° 0.5 mm 1 mps 754 mmHg 77%
    10:00 +26°C° 0.5 mm 0 mps 754 mmHg 73%
    11:00 +30°C° 0 mm 1 mps 754 mmHg 67%
    12:00 +31°C° 0 mm 2 mps 753 mmHg 60%
    13:00 +34°C° 0 mm 3 mps 752 mmHg 54%
    14:00 +33°C° 0 mm 4 mps 751 mmHg 57%
    15:00 +33°C° 0 mm 4 mps 751 mmHg 59%
    16:00 +32°C° 0 mm 4 mps 750 mmHg 61%
    17:00 +30°C° 0 mm 4 mps 751 mmHg 67%
    18:00 +28°C° 0 mm 4 mps 751 mmHg 73%
    19:00 +27°C° 0 mm 4 mps 751 mmHg 78%
    20:00 +27°C° 0 mm 4 mps 752 mmHg 80%
    21:00 +27°C° 0 mm 4 mps 752 mmHg 82%
    22:00 +26°C° 0 mm 4 mps 753 mmHg 83%
    23:00 +26°C° 0 mm 3 mps 753 mmHg 84%

    Mañana, 19 Octubre, Viernes

    Tiempo Temperatura Precipitaciones Viento Presión Humedad
    00:00 +26°C° 0 mm 3 mps 753 mmHg 84%
    01:00 +26°C° 0 mm 3 mps 753 mmHg 84%
    02:00 +26°C° 0.1 mm 2 mps 753 mmHg 84%
    03:00 +26°C° 0.1 mm 2 mps 753 mmHg 84%
    04:00 +26°C° 0.1 mm 2 mps 752 mmHg 85%
    05:00 +26°C° 0.1 mm 2 mps 753 mmHg 84%
    06:00 +26°C° 0.1 mm 2 mps 753 mmHg 83%
    07:00 +26°C° 0.1 mm 2 mps 754 mmHg 82%
    08:00 +28°C° 0 mm 2 mps 754 mmHg 76%
    09:00 +29°C° 0 mm 1 mps 754 mmHg 70%
    10:00 +30°C° 0 mm 1 mps 754 mmHg 64%
    11:00 +31°C° 0 mm 2 mps 753 mmHg 60%
    12:00 +33°C° 0 mm 3 mps 753 mmHg 56%
    13:00 +34°C° 0 mm 4 mps 752 mmHg 52%
    14:00 +33°C° 0 mm 4 mps 751 mmHg 55%
    15:00 +33°C° 0 mm 4 mps 751 mmHg 58%
    16:00 +32°C° 0 mm 4 mps 750 mmHg 61%
    17:00 +30°C° 0 mm 4 mps 751 mmHg 66%
    18:00 +28°C° 0 mm 4 mps 752 mmHg 72%
    19:00 +27°C° 0 mm 4 mps 752 mmHg 77%
    20:00 +27°C° 0.1 mm 3 mps 753 mmHg 78%
    21:00 +27°C° 0.1 mm 2 mps 754 mmHg 79%
    22:00 +27°C° 0.1 mm 1 mps 754 mmHg 80%
    23:00 +27°C° 0.1 mm 1 mps 754 mmHg 80%

    Pasado mañana, 20 Octubre, Sábado

    Tiempo Temperatura Precipitaciones Viento Presión Humedad
    00:00 +26°C° 0.1 mm 1 mps 754 mmHg 80%
    01:00 +26°C° 0.1 mm 1 mps 753 mmHg 81%
    02:00 +26°C° 0 mm 1 mps 753 mmHg 81%
    03:00 +26°C° 0 mm 1 mps 753 mmHg 81%
    04:00 +26°C° 0 mm 1 mps 753 mmHg 81%
    05:00 +26°C° 0 mm 1 mps 753 mmHg 80%
    06:00 +27°C° 0 mm 1 mps 754 mmHg 79%
    07:00 +27°C° 0 mm 1 mps 754 mmHg 78%
    08:00 +28°C° 0 mm 1 mps 754 mmHg 72%
    09:00 +30°C° 0 mm 1 mps 754 mmHg 66%
    10:00 +31°C° 0 mm 1 mps 755 mmHg 60%
    11:00 +32°C° 0 mm 2 mps 754 mmHg 57%
    12:00 +34°C° 0 mm 3 mps 753 mmHg 54%
    13:00 +34°C° 0 mm 4 mps 753 mmHg 51%
    14:00 +33°C° 0 mm 4 mps 752 mmHg 55%
    15:00 +32°C° 0 mm 4 mps 752 mmHg 59%
    16:00 +32°C° 0 mm 5 mps 751 mmHg 63%
    17:00 +30°C° 0 mm 4 mps 751 mmHg 67%
    18:00 +29°C° 0 mm 4 mps 752 mmHg 71%
    19:00 +28°C° 0 mm 3 mps 752 mmHg 74%
    20:00 +27°C° 0 mm 3 mps 753 mmHg 76%
    21:00 +27°C° 0 mm 3 mps 753 mmHg 77%
    22:00 +27°C° 0 mm 3 mps 753 mmHg 78%
    23:00 +27°C° 0 mm 3 mps 753 mmHg 79%

    21 Octubre, Domingo

    Tiempo Temperatura Precipitaciones Viento Presión Humedad
    00:00 +27°C° 0 mm 3 mps 753 mmHg 80%
    01:00 +26°C° 0 mm 3 mps 753 mmHg 81%
    02:00 +26°C° 0.1 mm 3 mps 753 mmHg 82%
    03:00 +26°C° 0.1 mm 2 mps 753 mmHg 83%
    04:00 +26°C° 0.1 mm 2 mps 752 mmHg 83%
    05:00 +26°C° 0 mm 2 mps 753 mmHg 82%
    06:00 +26°C° 0 mm 1 mps 753 mmHg 80%
    07:00 +27°C° 0 mm 1 mps 754 mmHg 79%
    08:00 +29°C° 0 mm 1 mps 754 mmHg 69%
    09:00 +31°C° 0 mm 1 mps 754 mmHg 59%
    10:00 +34°C° 0 mm 1 mps 754 mmHg 49%
    11:00 +36°C° 0 mm 2 mps 753 mmHg 46%
    12:00 +36°C° 0 mm 3 mps 752 mmHg 43%
    13:00 +37°C° 0 mm 4 mps 751 mmHg 41%
    14:00 +36°C° 0 mm 5 mps 751 mmHg 45%
    15:00 +35°C° 0 mm 5 mps 750 mmHg 50%
    16:00 +34°C° 0 mm 6 mps 750 mmHg 54%
    17:00 +32°C° 0 mm 6 mps 750 mmHg 60%
    18:00 +30°C° 0 mm 5 mps 751 mmHg 66%
    19:00 +28°C° 0 mm 5 mps 752 mmHg 71%
    20:00 +28°C° 0.1 mm 5 mps 752 mmHg 73%
    21:00 +28°C° 0.1 mm 4 mps 753 mmHg 74%
    22:00 +28°C° 0.1 mm 3 mps 753 mmHg 76%
    23:00 +27°C° 0.1 mm 3 mps 753 mmHg 78%

    22 Octubre, Lunes

    Tiempo Temperatura Precipitaciones Viento Presión Humedad
    00:00 +27°C° 0.1 mm 2 mps 753 mmHg 79%
    01:00 +27°C° 0.1 mm 2 mps 752 mmHg 81%
    02:00 +27°C° 0.3 mm 2 mps 752 mmHg 82%
    03:00 +26°C° 0.3 mm 1 mps 752 mmHg 84%
    04:00 +26°C° 0.3 mm 1 mps 752 mmHg 85%
    05:00 +26°C° 0.4 mm 1 mps 752 mmHg 84%
    06:00 +27°C° 0.4 mm 1 mps 753 mmHg 83%
    07:00 +27°C° 0.4 mm 1 mps 753 mmHg 82%
    08:00 +29°C° 0 mm 1 mps 753 mmHg 74%
    09:00 +31°C° 0 mm 2 mps 753 mmHg 65%
    10:00 +34°C° 0 mm 2 mps 753 mmHg 57%
    11:00 +34°C° 0 mm 2 mps 752 mmHg 57%
    12:00 +34°C° 0 mm 3 mps 751 mmHg 57%
    13:00 +34°C° 0 mm 3 mps 750 mmHg 58%
    14:00 +33°C° 0 mm 4 mps 750 mmHg 61%
    15:00 +32°C° 0 mm 4 mps 750 mmHg 64%
    16:00 +32°C° 0 mm 5 mps 749 mmHg 66%
    17:00 +29°C° 0.2 mm 5 mps 750 mmHg 70%
    18:00 +28°C° 0.2 mm 4 mps 750 mmHg 74%
    19:00 +27°C° 0.2 mm 4 mps 751 mmHg 77%
    20:00 +27°C° 0.7 mm 4 mps 751 mmHg 79%
    21:00 +27°C° 0.7 mm 4 mps 752 mmHg 80%
    22:00 +27°C° 0.7 mm 4 mps 753 mmHg 81%
    23:00 +27°C° 1.3 mm 3 mps 752 mmHg 83%

    23 Octubre, Martes

    Tiempo Temperatura Precipitaciones Viento Presión Humedad
    00:00 +26°C° 1.3 mm 2 mps 752 mmHg 84%
    01:00 +26°C° 1.3 mm 2 mps 752 mmHg 86%
    02:00 +26°C° 1.2 mm 1 mps 752 mmHg 87%
    03:00 +26°C° 1.2 mm 1 mps 752 mmHg 87%
    04:00 +26°C° 1.2 mm 1 mps 752 mmHg 88%
    05:00 +26°C° 0.4 mm 1 mps 753 mmHg 88%
    06:00 +26°C° 0.4 mm 1 mps 753 mmHg 87%
    07:00 +24°C° 0.4 mm 0 mps 754 mmHg 87%
    08:00 +25°C° 0 mm 0 mps 754 mmHg 81%
    09:00 +29°C° 0 mm 1 mps 754 mmHg 76%
    10:00 +30°C° 0 mm 1 mps 754 mmHg 70%
    11:00 +31°C° 0 mm 1 mps 753 mmHg 66%
    12:00 +32°C° 0 mm 2 mps 752 mmHg 61%
    13:00 +34°C° 0 mm 3 mps 752 mmHg 56%
    14:00 +34°C° 0 mm 3 mps 751 mmHg 59%
    15:00 +33°C° 0 mm 4 mps 751 mmHg 61%
    16:00 +33°C° 0 mm 4 mps 750 mmHg 63%
    17:00 +32°C° 0 mm 4 mps 751 mmHg 68%
    18:00 +29°C° 0 mm 4 mps 752 mmHg 74%
    19:00 +28°C° 0 mm 4 mps 752 mmHg 79%
    20:00 +27°C° 0 mm 4 mps 752 mmHg 80%
    21:00 +27°C° 0 mm 4 mps 753 mmHg 81%
    22:00 +27°C° 0 mm 3 mps 753 mmHg 82%
    23:00 +27°C° 0 mm 3 mps 753 mmHg 83%
    Mostrar más